| time (UTC) | temp F | wind direction | speed knots | gust knots | rain 1hr in | rain 24hr in | rain mn in | humidity % | barometer mb |
| 20260504081205 | 44 | 10 | 18.2 | 23.5 | 0.00 | 0.00 | 0.00 | 70 | 1014.3 |
| 20260504080701 | 44 | 10 | 10.4 | 26.1 | 0.00 | 0.00 | 0.00 | 68 | 1014.6 |
| 20260504080158 | 44 | 9 | 14.8 | 22.6 | 0.00 | 0.00 | 0.00 | 67 | 1014.5 |
| 20260504070126 | 46 | 2 | 16.5 | 23.5 | 0.00 | 0.00 | 0.00 | 57 | 1013.9 |
| 20260504050514 | 51 | 14 | 6.1 | 17.4 | 0.00 | 0.00 | 0.00 | 44 | 1011.2 |
| 20260504050010 | 52 | 19 | 11.3 | 16.5 | 0.00 | 0.00 | 0.00 | 43 | 1011.0 |
| 20260504045507 | 52 | 10 | 17.4 | 17.4 | 0.00 | 0.00 | 0.00 | 42 | 1010.9 |
| 20260504045003 | 52 | 8 | 12.2 | 16.5 | 0.00 | 0.00 | 0.00 | 43 | 1010.9 |
| 20260504044501 | 53 | 7 | 11.3 | 19.1 | 0.00 | 0.00 | 0.00 | 42 | 1010.8 |
| 20260504043958 | 53 | 27 | 7.8 | 20.9 | 0.00 | 0.00 | 0.00 | 42 | 1011.0 |
| 20260504043455 | 53 | 18 | 8.7 | 20.0 | 0.00 | 0.00 | 0.00 | 41 | 1010.8 |
| 20260504042952 | 53 | 18 | 15.6 | 20.9 | 0.00 | 0.00 | 0.00 | 42 | 1010.7 |
| 20260504042449 | 53 | 22 | 15.6 | 27.8 | 0.00 | 0.00 | 0.00 | 42 | 1010.5 |
| 20260504041946 | 53 | 6 | 4.3 | 20.0 | 0.00 | 0.00 | 0.00 | 43 | 1010.6 |
| 20260504041442 | 54 | 8 | 15.6 | 20.0 | 0.00 | 0.00 | 0.00 | 44 | 1010.1 |
| 20260504040937 | 54 | 20 | 15.6 | 19.1 | 0.00 | 0.00 | 0.00 | 46 | 1009.7 |
| 20260504040435 | 54 | 5 | 10.4 | 18.2 | 0.00 | 0.00 | 0.00 | 46 | 1009.7 |
| 20260504035931 | 54 | 16 | 11.3 | 17.4 | 0.00 | 0.00 | 0.00 | 46 | 1009.6 |
| 20260504035429 | 55 | 11 | 13.9 | 20.0 | 0.00 | 0.00 | 0.00 | 43 | 1009.0 |
| 20260504034926 | 56 | 339 | 9.6 | 13.9 | 0.00 | 0.00 | 0.00 | 42 | 1008.8 |
| 20260504034423 | 55 | 1 | 7.8 | 13.0 | 0.00 | 0.00 | 0.00 | 42 | 1008.7 |
| 20260504033920 | 55 | 339 | 8.7 | 10.4 | 0.00 | 0.00 | 0.00 | 43 | 1008.4 |
| 20260504033418 | 56 | 343 | 8.7 | 11.3 | 0.00 | 0.00 | 0.00 | 42 | 1008.4 |
| 20260504032915 | 56 | 338 | 7.0 | 9.6 | 0.00 | 0.00 | 0.00 | 42 | 1008.3 |
| 20260504032411 | 56 | 4 | 4.3 | 9.6 | 0.00 | 0.00 | 0.00 | 42 | 1008.4 |
| 20260504031908 | 56 | 346 | 7.0 | 7.8 | 0.00 | 0.00 | 0.00 | 42 | 1008.0 |
| 20260504031405 | 56 | 6 | 6.1 | 7.8 | 0.00 | 0.00 | 0.00 | 42 | 1008.0 |
| 20260504030902 | 56 | 9 | 8.7 | 9.6 | 0.00 | 0.00 | 0.00 | 41 | 1008.4 |
| 20260504030359 | 57 | 14 | 7.0 | 10.4 | 0.00 | 0.00 | 0.00 | 40 | 1008.1 |
| 20260504025855 | 57 | 5 | 7.8 | 9.6 | 0.00 | 0.00 | 0.00 | 40 | 1007.8 |
| 20260504025352 | 57 | 10 | 5.2 | 9.6 | 0.00 | 0.00 | 0.00 | 40 | 1007.9 |
| 20260504024849 | 57 | 17 | 6.1 | 7.8 | 0.00 | 0.00 | 0.00 | 40 | 1007.9 |
| 20260504024345 | 58 | 24 | 7.0 | 11.3 | 0.00 | 0.00 | 0.00 | 40 | 1007.9 |
| 20260504023842 | 58 | 17 | 7.0 | 12.2 | 0.00 | 0.00 | 0.00 | 39 | 1007.8 |
| 20260504023339 | 59 | 32 | 7.0 | 13.0 | 0.00 | 0.00 | 0.00 | 39 | 1007.8 |
| 20260504022834 | 59 | 25 | 10.4 | 14.8 | 0.00 | 0.00 | 0.00 | 38 | 1007.6 |
| 20260504022332 | 59 | 36 | 9.6 | 15.6 | 0.00 | 0.00 | 0.00 | 38 | 1007.7 |
| 20260504021828 | 60 | 40 | 11.3 | 15.6 | 0.00 | 0.00 | 0.00 | 39 | 1007.7 |
| 20260504021326 | 60 | 37 | 12.2 | 16.5 | 0.00 | 0.00 | 0.00 | 38 | 1007.7 |
| 20260504020822 | 61 | 28 | 9.6 | 14.8 | 0.00 | 0.00 | 0.00 | 37 | 1007.6 |
| 20260504020319 | 62 | 47 | 10.4 | 16.5 | 0.00 | 0.00 | 0.00 | 36 | 1007.6 |
| 20260504015815 | 63 | 1 | 11.3 | 22.6 | 0.00 | 0.00 | 0.00 | 35 | 1007.6 |
| 20260504015311 | 63 | 19 | 13.0 | 20.9 | 0.00 | 0.00 | 0.00 | 34 | 1007.3 |
| 20260504014808 | 64 | 26 | 12.2 | 18.2 | 0.00 | 0.00 | 0.00 | 32 | 1007.5 |
| 20260504014304 | 65 | 13 | 15.6 | 18.2 | 0.00 | 0.00 | 0.00 | 31 | 1007.6 |
| 20260504013802 | 65 | 29 | 17.4 | 20.9 | 0.00 | 0.00 | 0.00 | 30 | 1007.1 |
| 20260504013259 | 66 | 25 | 6.1 | 17.4 | 0.00 | 0.00 | 0.00 | 31 | 1007.3 |
| 20260504012755 | 66 | 12 | 11.3 | 19.1 | 0.00 | 0.00 | 0.00 | 30 | 1007.3 |
| 20260504012254 | 67 | 9 | 9.6 | 15.6 | 0.00 | 0.00 | 0.00 | 28 | 1007.1 |
| 20260504011750 | 68 | 11 | 14.8 | 22.6 | 0.00 | 0.00 | 0.00 | 26 | 1007.1 |
| 20260504011247 | 69 | 31 | 14.8 | 18.2 | 0.00 | 0.00 | 0.00 | 27 | 1007.1 |
| 20260504010743 | 69 | 359 | 11.3 | 18.2 | 0.00 | 0.00 | 0.00 | 28 | 1007.1 |
| 20260504010238 | 69 | 13 | 11.3 | 17.4 | 0.00 | 0.00 | 0.00 | 28 | 1007.1 |
| 20260504005736 | 70 | 327 | 7.8 | 14.8 | 0.00 | 0.00 | 0.00 | 27 | 1006.8 |
| 20260504005233 | 70 | 314 | 8.7 | 13.9 | 0.00 | 0.00 | 0.00 | 24 | 1006.9 |
| 20260504004730 | 70 | 326 | 9.6 | 13.9 | 0.00 | 0.00 | 0.00 | 24 | 1007.0 |
| 20260504004227 | 70 | 348 | 13.0 | 17.4 | 0.00 | 0.00 | 0.00 | 24 | 1007.1 |
| 20260504003724 | 71 | 328 | 13.9 | 17.4 | 0.00 | 0.00 | 0.00 | 24 | 1007.1 |
| 20260504003221 | 71 | 0 | 8.7 | 18.2 | 0.00 | 0.00 | 0.00 | 25 | 1006.9 |
| 20260504002718 | 71 | 335 | 7.0 | 24.3 | 0.00 | 0.00 | 0.00 | 25 | 1007.4 |
| 20260504002214 | 71 | 328 | 9.6 | 14.8 | 0.00 | 0.00 | 0.00 | 24 | 1007.1 |
| 20260504001712 | 71 | 333 | 15.6 | 17.4 | 0.00 | 0.00 | 0.00 | 23 | 1007.1 |
| 20260504001209 | 71 | 329 | 12.2 | 13.0 | 0.00 | 0.00 | 0.00 | 22 | 1007.5 |
| 20260504000706 | 71 | 291 | 12.2 | 15.6 | 0.00 | 0.00 | 0.00 | 23 | 1007.8 |
| 20260504000204 | 71 | 329 | 7.8 | 16.5 | 0.00 | 0.00 | 0.00 | 24 | 1007.5 |
| 20260503235701 | 71 | 310 | 6.1 | 17.4 | 0.00 | 0.00 | 0.00 | 24 | 1007.5 |
| 20260503235157 | 71 | 342 | 15.6 | 20.0 | 0.00 | 0.00 | 0.00 | 24 | 1007.5 |
| 20260503234655 | 71 | 344 | 11.3 | 19.1 | 0.00 | 0.00 | 0.00 | 24 | 1007.9 |
| 20260503234154 | 71 | 316 | 10.4 | 16.5 | 0.00 | 0.00 | 0.00 | 24 | 1007.3 |
| 20260503233650 | 70 | 323 | 9.6 | 22.6 | 0.00 | 0.00 | 0.00 | 24 | 1007.6 |
| 20260503233145 | 70 | 358 | 5.2 | 15.6 | 0.00 | 0.00 | 0.00 | 24 | 1007.6 |
| 20260503232642 | 70 | 356 | 8.7 | 18.2 | 0.00 | 0.00 | 0.00 | 24 | 1007.6 |
| 20260503232139 | 72 | 357 | 20.0 | 21.7 | 0.00 | 0.00 | 0.00 | 24 | 1007.5 |
| 20260503231638 | 71 | 348 | 13.9 | 20.9 | 0.00 | 0.00 | 0.00 | 24 | 1007.7 |
| 20260503231133 | 71 | 334 | 12.2 | 21.7 | 0.00 | 0.00 | 0.00 | 23 | 1007.5 |
| 20260503230630 | 71 | 353 | 13.0 | 20.0 | 0.00 | 0.00 | 0.00 | 23 | 1007.6 |
| 20260503230128 | 71 | 300 | 10.4 | 20.9 | 0.00 | 0.00 | 0.00 | 23 | 1007.7 |
| 20260503225625 | 71 | 319 | 12.2 | 23.5 | 0.00 | 0.00 | 0.00 | 23 | 1007.7 |
| 20260503225124 | 71 | 285 | 14.8 | 24.3 | 0.00 | 0.00 | 0.00 | 23 | 1007.6 |
| 20260503224622 | 71 | 344 | 8.7 | 19.1 | 0.00 | 0.00 | 0.00 | 25 | 1007.8 |
| 20260503224120 | 71 | 336 | 17.4 | 23.5 | 0.00 | 0.00 | 0.00 | 24 | 1007.9 |
| 20260503223618 | 71 | 329 | 21.7 | 25.2 | 0.00 | 0.00 | 0.00 | 23 | 1007.8 |
| 20260503223113 | 72 | 328 | 13.0 | 20.0 | 0.00 | 0.00 | 0.00 | 24 | 1007.8 |
| 20260503222611 | 72 | 328 | 5.2 | 21.7 | 0.00 | 0.00 | 0.00 | 24 | 1008.0 |
| 20260503222109 | 71 | 0 | 17.4 | 21.7 | 0.00 | 0.00 | 0.00 | 24 | 1007.7 |
| 20260503221608 | 71 | 323 | 6.1 | 22.6 | 0.00 | 0.00 | 0.00 | 24 | 1008.0 |
| 20260503221105 | 71 | 334 | 17.4 | 26.1 | 0.00 | 0.00 | 0.00 | 24 | 1008.1 |
| 20260503220601 | 71 | 294 | 7.0 | 22.6 | 0.00 | 0.00 | 0.00 | 24 | 1008.1 |
| 20260503220058 | 71 | 299 | 11.3 | 17.4 | 0.00 | 0.00 | 0.00 | 23 | 1008.4 |
| 20260503215555 | 71 | 305 | 7.0 | 20.0 | 0.00 | 0.00 | 0.00 | 23 | 1008.1 |
| 20260503215051 | 70 | 268 | 4.3 | 16.5 | 0.00 | 0.00 | 0.00 | 25 | 1008.1 |
| 20260503214549 | 71 | 301 | 15.6 | 19.1 | 0.00 | 0.00 | 0.00 | 25 | 1008.5 |
| 20260503214046 | 71 | 304 | 9.6 | 18.2 | 0.00 | 0.00 | 0.00 | 24 | 1008.4 |
| 20260503213544 | 71 | 336 | 11.3 | 20.9 | 0.00 | 0.00 | 0.00 | 24 | 1008.6 |
| 20260503213041 | 71 | 332 | 5.2 | 20.0 | 0.00 | 0.00 | 0.00 | 25 | 1008.8 |
| 20260503212538 | 71 | 0 | 13.9 | 20.0 | 0.00 | 0.00 | 0.00 | 25 | 1008.7 |
| 20260503212036 | 71 | 328 | 19.1 | 20.0 | 0.00 | 0.00 | 0.00 | 23 | 1008.9 |
| 20260503211532 | 71 | 329 | 15.6 | 21.7 | 0.00 | 0.00 | 0.00 | 24 | 1008.8 |
| 20260503211028 | 71 | 317 | 10.4 | 25.2 | 0.00 | 0.00 | 0.00 | 24 | 1008.6 |
| 20260503210525 | 70 | 291 | 14.8 | 20.0 | 0.00 | 0.00 | 0.00 | 24 | 1008.8 |
| 20260503210021 | 71 | 316 | 8.7 | 21.7 | 0.00 | 0.00 | 0.00 | 24 | 1008.8 |
| 20260503205517 | 70 | 320 | 8.7 | 20.9 | 0.00 | 0.00 | 0.00 | 24 | 1008.8 |
| 20260503205014 | 69 | 281 | 4.3 | 13.0 | 0.00 | 0.00 | 0.00 | 25 | 1009.0 |
| 20260503204511 | 71 | 297 | 16.5 | 21.7 | 0.00 | 0.00 | 0.00 | 24 | 1009.3 |
| 20260503204008 | 70 | 350 | 7.0 | 16.5 | 0.00 | 0.00 | 0.00 | 26 | 1009.3 |
| 20260503203505 | 70 | 335 | 20.9 | 23.5 | 0.00 | 0.00 | 0.00 | 24 | 1009.1 |
| 20260503203002 | 69 | 319 | 13.9 | 24.3 | 0.00 | 0.00 | 0.00 | 25 | 1009.1 |
| 20260503202500 | 69 | 319 | 13.0 | 19.1 | 0.00 | 0.00 | 0.00 | 24 | 1009.4 |
| 20260503201958 | 70 | 1 | 10.4 | 22.6 | 0.00 | 0.00 | 0.00 | 26 | 1009.4 |
| 20260503201455 | 69 | 301 | 7.0 | 18.2 | 0.00 | 0.00 | 0.00 | 25 | 1009.4 |
| 20260503200952 | 69 | 336 | 13.0 | 16.5 | 0.00 | 0.00 | 0.00 | 25 | 1009.3 |
| 20260503200449 | 70 | 341 | 12.2 | 17.4 | 0.00 | 0.00 | 0.00 | 25 | 1009.5 |
| 20260503195945 | 69 | 324 | 18.2 | 22.6 | 0.00 | 0.00 | 0.00 | 24 | 1009.3 |
| 20260503195443 | 69 | 289 | 11.3 | 13.0 | 0.00 | 0.00 | 0.00 | 27 | 1009.4 |
| 20260503194939 | 69 | 337 | 11.3 | 17.4 | 0.00 | 0.00 | 0.00 | 26 | 1009.7 |
| 20260503194436 | 69 | 318 | 11.3 | 20.9 | 0.00 | 0.00 | 0.00 | 27 | 1009.7 |
| 20260503193931 | 69 | 320 | 12.2 | 16.5 | 0.00 | 0.00 | 0.00 | 26 | 1009.8 |
| 20260503193427 | 69 | 341 | 12.2 | 14.8 | 0.00 | 0.00 | 0.00 | 27 | 1010.2 |
| 20260503192923 | 68 | 302 | 7.8 | 18.2 | 0.00 | 0.00 | 0.00 | 28 | 1010.1 |
| 20260503192421 | 69 | 354 | 2.6 | 13.0 | 0.00 | 0.00 | 0.00 | 29 | 1010.2 |
| 20260503191916 | 67 | 351 | 7.8 | 19.1 | 0.00 | 0.00 | 0.00 | 27 | 1010.4 |
| 20260503191414 | 68 | 322 | 18.2 | 21.7 | 0.00 | 0.00 | 0.00 | 26 | 1010.2 |
| 20260503190909 | 65 | 329 | 15.6 | 21.7 | 0.00 | 0.00 | 0.00 | 28 | 1010.4 |
| 20260503190407 | 68 | 344 | 7.8 | 13.9 | 0.00 | 0.00 | 0.00 | 29 | 1010.5 |
| 20260503185903 | 68 | 321 | 9.6 | 19.1 | 0.00 | 0.00 | 0.00 | 28 | 1010.4 |
| 20260503185400 | 68 | 306 | 14.8 | 21.7 | 0.00 | 0.00 | 0.00 | 27 | 1010.6 |
| 20260503184859 | 67 | 302 | 9.6 | 18.2 | 0.00 | 0.00 | 0.00 | 28 | 1010.8 |
| 20260503184356 | 66 | 333 | 12.2 | 13.9 | 0.00 | 0.00 | 0.00 | 29 | 1010.8 |
| 20260503183852 | 67 | 7 | 7.0 | 15.6 | 0.00 | 0.00 | 0.00 | 29 | 1010.6 |
| 20260503183349 | 68 | 307 | 7.8 | 20.0 | 0.00 | 0.00 | 0.00 | 29 | 1011.0 |
| 20260503182846 | 66 | 355 | 9.6 | 14.8 | 0.00 | 0.00 | 0.00 | 32 | 1011.1 |
| 20260503182345 | 66 | 352 | 7.8 | 13.0 | 0.00 | 0.00 | 0.00 | 30 | 1011.0 |
| 20260503181842 | 66 | 275 | 6.1 | 12.2 | 0.00 | 0.00 | 0.00 | 30 | 1011.1 |
| 20260503181339 | 65 | 297 | 5.2 | 11.3 | 0.00 | 0.00 | 0.00 | 32 | 1011.2 |
| 20260503180835 | 67 | 324 | 9.6 | 12.2 | 0.00 | 0.00 | 0.00 | 32 | 1011.2 |
| 20260503180333 | 67 | 326 | 14.8 | 18.2 | 0.00 | 0.00 | 0.00 | 30 | 1011.2 |
| 20260503175829 | 66 | 344 | 7.0 | 10.4 | 0.00 | 0.00 | 0.00 | 30 | 1011.2 |
| 20260503175328 | 65 | 341 | 11.3 | 13.0 | 0.00 | 0.00 | 0.00 | 31 | 1011.4 |
| 20260503174823 | 66 | 307 | 7.0 | 16.5 | 0.00 | 0.00 | 0.00 | 30 | 1011.5 |
| 20260503174322 | 66 | 10 | 11.3 | 19.1 | 0.00 | 0.00 | 0.00 | 29 | 1011.5 |
| 20260503173817 | 66 | 289 | 4.3 | 13.0 | 0.00 | 0.00 | 0.00 | 29 | 1011.7 |
| 20260503173313 | 65 | 329 | 9.6 | 17.4 | 0.00 | 0.00 | 0.00 | 29 | 1011.8 |
| 20260503172810 | 65 | 305 | 10.4 | 17.4 | 0.00 | 0.00 | 0.00 | 30 | 1011.7 |
| 20260503172308 | 65 | 284 | 5.2 | 17.4 | 0.00 | 0.00 | 0.00 | 30 | 1011.9 |
| 20260503171803 | 66 | 8 | 8.7 | 15.6 | 0.00 | 0.00 | 0.00 | 28 | 1011.8 |
| 20260503171300 | 66 | 322 | 7.8 | 11.3 | 0.00 | 0.00 | 0.00 | 28 | 1011.9 |
| 20260503170758 | 64 | 294 | 6.1 | 11.3 | 0.00 | 0.00 | 0.00 | 31 | 1012.5 |
| 20260503170254 | 64 | 347 | 7.0 | 12.2 | 0.00 | 0.00 | 0.00 | 31 | 1012.0 |
| 20260503160217 | 62 | 288 | 10.4 | 20.0 | 0.00 | 0.00 | 0.00 | 34 | 1012.1 |
| 20260503150647 | 60 | 251 | 6.1 | 16.5 | 0.00 | 0.00 | 0.00 | 36 | 1012.0 |
| 20260503150143 | 60 | 289 | 13.0 | 17.4 | 0.00 | 0.00 | 0.00 | 36 | 1012.1 |
| 20260503140107 | 59 | 305 | 12.2 | 16.5 | 0.00 | 0.00 | 0.00 | 40 | 1012.5 |
| 20260503131036 | 57 | 288 | 8.7 | 15.6 | 0.00 | 0.00 | 0.00 | 45 | 1012.0 |
| 20260503130533 | 57 | 291 | 13.0 | 14.8 | 0.00 | 0.00 | 0.00 | 46 | 1012.0 |
| 20260503110424 | 49 | 165 | 1.7 | 2.6 | 0.00 | 0.00 | 0.00 | 59 | 1012.5 |
| 20260503090304 | 47 | 198 | 7.8 | 7.8 | 0.00 | 0.00 | 0.00 | 67 | 1013.0 |